Location: El Recuerdo
(3.6589°N, 75.6172°W)
Time: 21:20:41
(UTC+00:00)

Meteor 1-5 Rocket - Pass Details

Date: 23 March 2026
Orbit: 787 x 914 km, 81.2° (Epoch: 11 April)

Event Time Altitude Azimuth Distance (km) Brightness Sun altitude
Rises 09:52:28 0° 4° (N) 3,264 7.3 -19.0°
Reaches altitude 10° 09:54:53 10° 10° (N) 2,337 6.6 -18.4°
Maximum altitude 09:59:58 51° 85° (E) 988 5.0 -17.2°
Drops below altitude 10° 10:05:08 10° 160° (SSE) 2,375 6.8 -15.9°
Sets 10:07:36 0° 165° (SSE) 3,322 7.5 -15.3°
